sat.trackr.live / text

‹ back to catalog

STARLINK-4157

NORAD 53035 · 2022-076BB

PAYLOAD ACTIVE UNKNOWN

§ Identity

Operator
Country
US
Launch date
2022-07-07
Launch site
AFETR
Launch vehicle
Mass (kg)
RCS (m²)

Purposes: comms

External: N2YO · Heavens-Above · Gunter

§ Orbital elements

Epoch: 2026-05-25T02:59:53.335104Z

Period
95.44 min
Inclination
53.2137°
Eccentricity
0.0001808
Mean motion
15.08842403 rev/d
Perigee alt
538.5 km
Apogee alt
541.0 km
Semi-major
6,917.9 km
B*
-5.8831e-5
RAAN
90.9885°
Arg perigee
89.5148°
Mean anomaly
270.6051°
Rev number
21,466

§ Raw data

STARLINK-41571 53035U 22076BB  26145.12492286 -.00001224  00000+0 -58831-4 0  99942 53035  53.2137  90.9885 0001808  89.5148 270.6051 15.08842403214665

JSON: /api/v1/satellites/53035 · /tle

For live sub-satellite position, see the globe view (requires WebGL).

§ Visibility from observer

Set your observer location to see the next 7 days of passes ≥ 10°. The values pass through the URL so the page stays shareable.

No JS? Fill the form by hand. The geolocation button needs JavaScript.